Milwaukee, WI

3:07 PM CDT on March 24, 2017 (GMT -0500)
Gen Mitchell International

Weather History for KMKE - July, 2013

Change the Weather History Date:

Monday, July 8, 2013

  Actual Average Record
Temperature  
Mean Temperature 79 °F 72 °F  
Max Temperature 88 °F 80 °F 101 °F (1936)
Min Temperature 69 °F 63 °F 51 °F (1961)
Degree Days  
Heating Degree Days 0 0  
Month to date heating degree days 3 4  
Since 1 June heating degree days 90 88  
Since 1 July heating degree days 3 4  
Cooling Degree Days 14 7  
Month to date cooling degree days 59 55  
Year to date cooling degree days 197 205  
Since 1 June cooling degree days 158 175  
Growing Degree Days 29 (Base 50)    
Moisture  
Dew Point 69 °F    
Average Humidity 75    
Maximum Humidity 90    
Minimum Humidity 59    
Precipitation  
Precipitation 0.16 in 0.12 in 1.80 in (1971)
Month to date precipitation 0.50 0.99  
Year to date precipitation 25.81 17.53  
Snow  
Snow 0.00 in 0.00 in 0.00 in ()
Month to date snowfall 0.0 0.0  
Since 1 June snowfall 0.0 0.0  
Since 1 July snowfall 0.0 0.0  
Snow Depth 0.00 in    
Sea Level Pressure  
Sea Level Pressure 29.94 in    
Wind  
Wind Speed 8 mph (WSW)    
Max Wind Speed 20 mph    
Max Gust Speed 29 mph    
Visibility 8 miles    
Events Rain    
T = Trace of Precipitation, MM = Missing Value Source: NWS Daily Summary

Daily Weather History Graph

Daily Weather History Graph

Search for Another Location

Airport or City:

Trip Planner

Search our weather history database for the weather conditions in past years. The results will help you decide how hot, cold, wet, or windy it might be!

Date:

Astronomy

Jul. 08, 2013 Rise Set
Actual Time 5:20 AM CDT 8:32 PM CDT
Civil Twilight 4:46 AM CDT 9:06 PM CDT
Nautical Twilight 4:01 AM CDT 9:51 PM CDT
Astronomical Twilight 3:07 AM CDT 10:44 PM CDT
Moon 5:52 AM CDT (7/8) 8:31 PM CDT (7/8)
Length of Visible Light 16h 20m
Length of Day
15h 11m
New Moon, 0% of the Moon is Illuminated
Jul 8
New Moon
Jul 15
First Quarter
Jul 22
Full
Jul 29
Last Quarter
Aug 6
New

Hourly Weather History & Observations

Time (CDT) Temp. Heat Index Dew Point Humidity Pressure Visibility Wind Dir Wind Speed Gust Speed Precip Events Conditions
12:52 AM 79.0 °F - 68.0 °F 69% 29.94 in 10.0 mi SW 10.4 mph - N/A   Mostly Cloudy
1:52 AM 78.1 °F - 69.1 °F 74% 29.94 in 10.0 mi SW 10.4 mph - N/A   Mostly Cloudy
2:52 AM 78.1 °F - 69.1 °F 74% 29.92 in 10.0 mi SW 8.1 mph - N/A   Mostly Cloudy
3:52 AM 78.1 °F - 69.1 °F 74% 29.90 in 10.0 mi SW 10.4 mph - N/A   Overcast
4:52 AM 79.0 °F - 68.0 °F 69% 29.91 in 10.0 mi SW 11.5 mph - N/A   Overcast
5:52 AM 79.0 °F - 66.9 °F 66% 29.91 in 10.0 mi SW 11.5 mph - N/A   Overcast
6:52 AM 78.1 °F - 68.0 °F 71% 29.92 in 10.0 mi WSW 12.7 mph 24.2 mph 0.00 in   Overcast
7:52 AM 75.0 °F - 70.0 °F 84% 29.94 in 8.0 mi WSW 8.1 mph - 0.00 in   Overcast
8:52 AM 73.9 °F - 70.0 °F 87% 29.98 in 4.0 mi WSW 9.2 mph 19.6 mph 0.02 in Rain Light Rain
9:06 AM 73.4 °F - 69.8 °F 88% 29.99 in 2.5 mi WSW 8.1 mph - 0.03 in Rain Light Rain
9:15 AM 73.4 °F - 69.8 °F 88% 29.99 in 5.0 mi West 6.9 mph - 0.03 in Rain Light Rain
9:52 AM 73.0 °F - 69.1 °F 87% 29.98 in 3.0 mi WNW 3.5 mph - 0.05 in Rain Rain
9:57 AM 73.4 °F - 69.8 °F 88% 30.00 in 1.8 mi West 3.5 mph - 0.03 in Rain Heavy Rain
10:14 AM 73.4 °F - 69.8 °F 88% 29.97 in 3.0 mi South 9.2 mph - 0.08 in Rain Light Rain
10:52 AM 73.9 °F - 70.0 °F 87% 29.94 in 9.0 mi SSW 13.8 mph 23.0 mph 0.09 in   Mostly Cloudy
11:52 AM 79.0 °F - 71.1 °F 77% 29.92 in 10.0 mi SW 13.8 mph - N/A   Mostly Cloudy
12:52 PM 81.0 °F 84.4 °F 70.0 °F 69% 29.92 in 10.0 mi WSW 13.8 mph - N/A   Mostly Cloudy
1:52 PM 82.0 °F 86.3 °F 71.1 °F 69% 29.91 in 10.0 mi West 6.9 mph - N/A   Overcast
2:52 PM 84.0 °F 89.0 °F 71.1 °F 65% 29.92 in 9.0 mi West 4.6 mph - N/A   Overcast
3:52 PM 87.1 °F 93.6 °F 72.0 °F 61% 29.90 in 10.0 mi Variable 5.8 mph 16.1 mph N/A   Scattered Clouds
4:52 PM 87.1 °F 93.6 °F 72.0 °F 61% 29.90 in 9.0 mi SW 8.1 mph - N/A   Scattered Clouds
5:52 PM 80.1 °F 83.6 °F 71.1 °F 74% 29.90 in 10.0 mi ENE 6.9 mph - N/A   Mostly Cloudy
6:52 PM 79.0 °F - 71.1 °F 77% 29.93 in 10.0 mi SE 4.6 mph - N/A   Mostly Cloudy
7:52 PM 79.0 °F - 71.1 °F 77% 29.94 in 10.0 mi ENE 4.6 mph - N/A   Mostly Cloudy
8:52 PM 71.1 °F - 68.0 °F 90% 29.96 in 7.0 mi NE 5.8 mph - N/A   Scattered Clouds
9:52 PM 71.1 °F - 68.0 °F 90% 29.98 in 6.0 mi North 8.1 mph - N/A   Partly Cloudy
10:52 PM 70.0 °F - 66.9 °F 90% 29.99 in 6.0 mi NNE 8.1 mph - N/A   Clear
11:52 PM 69.1 °F - 66.9 °F 93% 29.99 in 6.0 mi NNE 4.6 mph - N/A   Scattered Clouds